Change the Weather History Date:

Thursday, June 28, 2012

  Actual Average Record
Temperature  
Mean Temperature 82 °F 74 °F  
Max Temperature 100 °F 92 °F 106 °F (1990)
Min Temperature 64 °F 56 °F 44 °F (1985)
Degree Days  
Heating Degree Days 0 0  
Month to date heating degree days 0 22  
Since 1 June heating degree days 0 22  
Since 1 July heating degree days 5029 5635  
Cooling Degree Days 17 9  
Month to date cooling degree days 334 157  
Year to date cooling degree days 387 191  
Since 1 June cooling degree days 334 157  
Growing Degree Days 32 (Base 50)    
Moisture  
Dew Point 42 °F    
Average Humidity 29    
Maximum Humidity 48    
Minimum Humidity 10    
Precipitation  
Precipitation 0.00 in 0.05 in 0.54 in (1995)
Month to date precipitation 0.07 1.26  
Year to date precipitation 2.53 5.75  
Snow  
Snow 0.00 in 0.00 in 0.00 in (2002)
Month to date snowfall 0.0 0.0  
Since 1 June snowfall 0.0 0.0  
Since 1 July snowfall 32.1 31.8  
Snow Depth 0.00 in    
Sea Level Pressure  
Sea Level Pressure 29.89 in    
Wind  
Wind Speed 9 mph (WSW)    
Max Wind Speed 32 mph    
Max Gust Speed 44 mph    
Visibility 10 miles    
Events      
T = Trace of Precipitation, MM = Missing Value Source: NWS Daily Summary

Daily Weather History Graph

Daily Weather History Graph

Search for Another Location

Airport or City:

Trip Planner

Search our weather history database for the weather conditions in past years. The results will help you decide how hot, cold, wet, or windy it might be!

Date:

Astronomy

Jun. 28, 2012 Rise Set
Actual Time 5:37 AM MDT 8:25 PM MDT
Civil Twilight 5:05 AM MDT 8:57 PM MDT
Nautical Twilight 4:25 AM MDT 9:36 PM MDT
Astronomical Twilight 3:40 AM MDT 10:21 PM MDT
Moon 3:05 PM MDT (6/28) 1:08 AM MDT (6/28)
Length of Visible Light 15h 51m
Length of Day
14h 48m
Waxing Gibbous, 68% of the Moon is Illuminated
Jun 28
Waxing Gibbous
Jul 3
Full
Jul 10
Last Quarter
Jul 18
New
Jul 26
First Quarter

Hourly Weather History & Observations

Time (MDT) Temp. Dew Point Humidity Pressure Visibility Wind Dir Wind Speed Gust Speed Precip Events Conditions
12:53 AM 75.9 °F 46.0 °F 35% 29.81 in 10.0 mi Variable 3.5 mph - N/A   Clear
1:53 AM 73.9 °F 45.0 °F 35% 29.83 in 10.0 mi ESE 9.2 mph - N/A   Clear
2:53 AM 70.0 °F 46.0 °F 42% 29.84 in 10.0 mi WNW 4.6 mph - N/A   Clear
3:53 AM 66.9 °F 44.1 °F 44% 29.90 in 10.0 mi Calm Calm - N/A   Clear
4:53 AM 66.0 °F 46.9 °F 50% 29.88 in 10.0 mi Calm Calm - N/A   Clear
5:53 AM 64.9 °F 45.0 °F 48% 29.90 in 10.0 mi SE 3.5 mph - N/A   Clear
6:53 AM 66.9 °F 46.9 °F 49% 29.93 in 10.0 mi Calm Calm - N/A   Clear
7:53 AM 75.9 °F 46.0 °F 35% 29.91 in 10.0 mi West 9.2 mph - N/A   Clear
8:53 AM 82.0 °F 45.0 °F 27% 29.91 in 10.0 mi WNW 8.1 mph - N/A   Clear
9:53 AM 88.0 °F 44.1 °F 22% 29.90 in 10.0 mi West 9.2 mph - N/A   Clear
10:53 AM 93.0 °F 43.0 °F 18% 29.89 in 10.0 mi WNW 10.4 mph 17.3 mph N/A   Clear
11:53 AM 96.1 °F 39.9 °F 14% 29.86 in 10.0 mi West 4.6 mph - N/A   Clear
12:53 PM 98.1 °F 37.0 °F 12% 29.84 in 10.0 mi East 9.2 mph - N/A   Clear
1:53 PM 97.0 °F 37.0 °F 12% 29.83 in 10.0 mi SSE 6.9 mph - N/A   Clear
2:53 PM 98.1 °F 33.1 °F 10% 29.82 in 10.0 mi SSW 9.2 mph - N/A   Clear
3:53 PM 93.9 °F 34.0 °F 12% 29.84 in 10.0 mi WSW 28.8 mph 33.4 mph N/A   Clear
4:53 PM 91.0 °F 37.9 °F 15% 29.89 in 10.0 mi SSW 17.3 mph 43.7 mph N/A   Mostly Cloudy
5:04 PM 89.6 °F 39.2 °F 17% 30.10 in 10.0 mi West 19.6 mph 26.5 mph N/A   Scattered Clouds
5:15 PM 89.6 °F 42.8 °F 20% 30.10 in 10.0 mi West 19.6 mph 26.5 mph N/A   Partly Cloudy
5:53 PM 91.9 °F 41.0 °F 17% 29.89 in 10.0 mi WSW 16.1 mph - N/A   Clear
6:53 PM 88.0 °F 45.0 °F 22% 29.90 in 10.0 mi SW 17.3 mph 28.8 mph N/A   Clear
7:53 PM 86.0 °F 46.0 °F 25% 29.88 in 10.0 mi WSW 12.7 mph - N/A   Clear
8:53 PM 82.0 °F 44.1 °F 26% 29.87 in 10.0 mi West 10.4 mph - N/A   Clear
9:53 PM 77.0 °F 43.0 °F 30% 29.88 in 10.0 mi West 6.9 mph - N/A   Clear
10:53 PM 75.0 °F 42.1 °F 31% 29.88 in 10.0 mi NW 10.4 mph - N/A   Clear
11:53 PM 73.9 °F 43.0 °F 33% 29.87 in 10.0 mi NW 9.2 mph - N/A   Clear